GW5021 Weather Reports


time (UTC)temp
C
wind
direction
speed
KPH
gust
KPH
rain 1hr
cm
rain 24hr
cm
rain mn
cm
humidity
%
barometer
mb
20260506043015 15 152 0.0 1.6 0.00 0.00 0.00 73 1017.4
20260506042504 15 154 0.0 1.6 0.00 0.00 0.00 73 1017.4
20260506042006 15 142 0.0 1.6 0.00 0.00 0.00 73 1017.3
20260506041519 15 154 0.0 0.0 0.00 0.00 0.00 73 1017.3
20260506041006 15 154 0.0 1.6 0.00 0.00 0.00 73 1017.2
20260506040509 15 154 0.0 1.6 0.00 0.00 0.00 73 1017.1
20260506040027 15 148 0.0 1.6 0.00 0.00 0.00 73 1017.2
20260506035509 15 122 0.0 1.6 0.00 0.00 0.00 73 1017.1
20260506035013 15 122 0.0 1.6 0.00 0.00 0.00 73 1017.1
20260506034526 15 210 0.0 1.6 0.00 0.00 0.00 73 1017.0
20260506034010 15 210 0.0 1.6 0.00 0.00 0.00 73 1016.9
20260506033507 15 27 0.0 3.2 0.00 0.00 0.00 73 1016.7
20260506033012 15 27 0.0 3.2 0.00 0.00 0.00 73 1016.7
20260506032505 15 229 0.0 4.8 0.00 0.00 0.00 73 1016.6
20260506032056 15 203 0.0 4.8 0.00 0.00 0.00 73 1016.5
20260506031505 15 139 0.0 3.2 0.00 0.00 0.00 72 1016.4
20260506031003 15 111 0.0 3.2 0.00 0.00 0.00 72 1016.3
20260506030504 15 162 0.0 3.2 0.00 0.00 0.00 72 1016.2
20260506030005 15 160 1.6 3.2 0.00 0.00 0.00 72 1016.2
20260506025503 15 136 1.6 3.2 0.00 0.00 0.00 71 1016.2
20260506025008 16 159 0.0 3.2 0.00 0.00 0.00 69 1016.2
20260506024503 16 297 0.0 1.6 0.00 0.00 0.00 67 1016.1
20260506024004 16 297 0.0 1.6 0.00 0.00 0.00 67 1016.0
20260506023504 16 297 0.0 1.6 0.00 0.00 0.00 67 1016.1
20260506023006 16 297 0.0 1.6 0.00 0.00 0.00 67 1016.0
20260506022503 16 260 0.0 1.6 0.00 0.00 0.00 67 1016.0
20260506022003 16 315 0.0 1.6 0.00 0.00 0.00 67 1015.9
20260506021504 16 336 0.0 1.6 0.00 0.00 0.00 67 1016.0
20260506021009 16 343 0.0 1.6 0.00 0.00 0.00 67 1016.1
20260506020504 16 343 0.0 1.6 0.00 0.00 0.00 67 1016.1
20260506020003 16 110 0.0 1.6 0.00 0.00 0.00 68 1016.1
20260506015504 16 134 0.0 1.6 0.00 0.00 0.00 68 1016.1
20260506015004 16 187 0.0 1.6 0.00 0.00 0.00 69 1016.2
20260506014505 16 187 0.0 0.0 0.00 0.00 0.00 69 1016.2
20260506014004 16 187 0.0 0.0 0.00 0.00 0.00 69 1016.2
20260506013505 16 187 0.0 0.0 0.00 0.00 0.00 68 1016.2
20260506013007 16 185 0.0 3.2 0.00 0.00 0.00 69 1016.2
20260506012504 16 185 0.0 3.2 0.00 0.00 0.00 69 1016.2
20260506012004 16 45 0.0 3.2 0.00 0.00 0.00 68 1016.0
20260506011506 16 112 0.0 1.6 0.00 0.00 0.00 67 1016.1
20260506011004 16 109 0.0 1.6 0.00 0.00 0.00 66 1016.1
20260506010507 16 139 0.0 3.2 0.00 0.00 0.00 65 1016.1
20260506010007 16 300 0.0 3.2 0.00 0.00 0.00 65 1016.0
20260506005504 16 224 0.0 4.8 0.00 0.00 0.00 65 1016.0
20260506005004 16 342 0.0 4.8 0.00 0.00 0.00 65 1015.9
20260506004511 16 320 0.0 3.2 0.00 0.00 0.00 65 1015.9
20260506004004 16 289 0.0 3.2 0.00 0.00 0.00 65 1015.9
20260506003507 16 205 0.0 3.2 0.00 0.00 0.00 65 1015.9
20260506003007 16 274 0.0 3.2 0.00 0.00 0.00 65 1015.8
20260506002504 16 294 0.0 3.2 0.00 0.00 0.00 64 1015.8
20260506002004 17 264 0.0 3.2 0.00 0.00 0.00 65 1015.8
20260506001509 17 338 0.0 3.2 0.00 0.00 0.00 64 1015.8
20260506001004 17 139 0.0 3.2 0.00 0.00 0.00 64 1015.7
20260506000504 17 150 0.0 3.2 0.00 0.00 0.00 63 1015.6
20260506000009 17 313 0.0 3.2 0.00 0.00 0.00 63 1015.6
20260505235505 17 254 0.0 1.6 0.00 0.00 0.00 64 1015.6
20260505235006 17 288 0.0 3.2 0.00 0.00 0.00 63 1015.7
20260505234508 17 290 0.0 3.2 0.00 0.00 0.00 63 1015.7
20260505234004 17 346 0.0 1.6 0.00 0.00 0.00 62 1015.7
20260505233508 17 200 0.0 3.2 0.00 0.00 0.00 64 1015.7
20260505233012 17 188 0.0 3.2 0.00 0.00 0.00 64 1015.7
20260505232504 17 291 1.6 4.8 0.00 0.00 0.00 64 1015.8
20260505232006 17 330 1.6 4.8 0.00 0.00 0.00 64 1015.7
20260505231518 17 311 1.6 4.8 0.00 0.00 0.00 64 1015.8
20260505231011 17 248 1.6 6.4 0.00 0.00 0.00 65 1015.8
20260505230502 16 263 1.6 8.0 0.00 0.00 0.00 65 1015.9
20260505230020 16 288 3.2 8.0 0.00 0.00 0.00 65 1015.8
20260505225504 16 323 1.6 9.7 0.00 0.00 0.00 66 1015.9
20260505225004 16 347 1.6 9.7 0.00 0.00 0.00 66 1015.9
20260505224515 16 317 4.8 9.7 0.00 0.00 0.00 65 1015.9
20260505224009 16 337 1.6 6.4 0.00 0.00 0.00 67 1015.9
20260505223505 16 303 1.6 8.0 0.00 0.00 0.00 67 1016.0
20260505223011 16 300 1.6 8.0 0.00 0.00 0.00 67 1015.9
20260505222503 16 313 1.6 6.4 0.00 0.00 0.00 67 1016.0
20260505222004 16 357 1.6 6.4 0.00 0.00 0.00 68 1016.0
20260505221510 16 293 0.0 3.2 0.00 0.00 0.00 68 1016.0
20260505221006 16 7 0.0 4.8 0.00 0.00 0.00 68 1016.1
20260505220505 16 345 0.0 4.8 0.00 0.00 0.00 68 1016.1
20260505220014 16 357 1.6 4.8 0.00 0.00 0.00 67 1016.1
20260505215505 16 360 3.2 4.8 0.00 0.00 0.00 67 1016.2
20260505215003 16 20 1.6 8.0 0.00 0.00 0.00 67 1016.1
20260505214512 16 6 3.2 8.0 0.00 0.00 0.00 67 1016.1
20260505214004 16 347 1.6 6.4 0.00 0.00 0.00 68 1016.1
20260505213504 16 3 3.2 8.0 0.00 0.00 0.00 67 1016.1
20260505213022 16 360 3.2 8.0 0.00 0.00 0.00 68 1016.2
20260505212504 16 309 3.2 8.0 0.00 0.00 0.00 68 1016.3
20260505212004 16 5 0.0 3.2 0.00 0.00 0.00 68 1016.2
20260505211516 15 356 1.6 3.2 0.00 0.00 0.00 68 1016.3
20260505211005 15 340 1.6 3.2 0.00 0.00 0.00 68 1016.4
20260505210504 15 356 1.6 6.4 0.00 0.00 0.00 68 1016.4
20260505210017 15 25 1.6 6.4 0.00 0.00 0.00 68 1016.4
20260505205508 16 333 1.6 4.8 0.00 0.00 0.00 68 1016.4
20260505205009 16 304 1.6 4.8 0.00 0.00 0.00 68 1016.4
20260505204515 16 4 1.6 4.8 0.00 0.00 0.00 68 1016.3
20260505204008 16 352 3.2 4.8 0.00 0.00 0.00 67 1016.3
20260505203503 16 327 1.6 4.8 0.00 0.00 0.00 68 1016.3
20260505203027 16 328 3.2 8.0 0.00 0.00 0.00 68 1016.4
20260505202504 16 4 1.6 8.0 0.00 0.00 0.00 67 1016.4
20260505202005 16 11 1.6 6.4 0.00 0.00 0.00 67 1016.3
20260505201528 16 11 1.6 8.0 0.00 0.00 0.00 67 1016.3
20260505201009 16 356 1.6 8.0 0.00 0.00 0.00 66 1016.3
20260505200505 16 313 0.0 6.4 0.00 0.00 0.00 67 1016.3
20260505200017 15 314 1.6 8.0 0.00 0.00 0.00 68 1016.3
20260505195506 15 276 1.6 8.0 0.00 0.00 0.00 69 1016.4
20260505195008 14 338 0.0 4.8 0.00 0.00 0.00 71 1016.4
20260505194516 14 282 1.6 8.0 0.00 0.00 0.00 72 1016.5
20260505194009 14 304 1.6 8.0 0.00 0.00 0.00 72 1016.6
20260505193506 14 300 1.6 8.0 0.00 0.00 0.00 72 1016.6
20260505193015 14 262 0.0 8.0 0.00 0.00 0.00 71 1016.6
20260505192509 14 274 0.0 4.8 0.00 0.00 0.00 71 1016.6
20260505192007 14 284 0.0 4.8 0.00 0.00 0.00 72 1016.6
20260505191520 14 357 0.0 1.6 0.00 0.00 0.00 72 1016.6
20260505191007 13 1 0.0 1.6 0.00 0.00 0.00 73 1016.6
20260505190510 13 354 0.0 1.6 0.00 0.00 0.00 73 1016.6
20260505190018 13 360 0.0 3.2 0.00 0.00 0.00 72 1016.6
20260505185509 14 340 0.0 6.4 0.00 0.00 0.00 71 1016.6
20260505185010 14 354 0.0 6.4 0.00 0.00 0.00 70 1016.6
20260505184525 14 278 1.6 6.4 0.00 0.00 0.00 70 1016.6
20260505184006 14 295 0.0 4.8 0.00 0.00 0.00 69 1016.5
20260505183511 14 293 1.6 6.4 0.00 0.00 0.00 69 1016.5
20260505183023 14 297 1.6 6.4 0.00 0.00 0.00 69 1016.4
20260505182507 14 298 0.0 6.4 0.00 0.00 0.00 69 1016.3
20260505182007 14 316 0.0 3.2 0.00 0.00 0.00 69 1016.3
20260505181520 14 198 0.0 3.2 0.00 0.00 0.00 69 1016.3
20260505181007 14 314 0.0 3.2 0.00 0.00 0.00 69 1016.3
20260505180511 14 165 0.0 3.2 0.00 0.00 0.00 70 1016.3
20260505180021 14 289 0.0 3.2 0.00 0.00 0.00 70 1016.2
20260505175505 13 347 1.6 3.2 0.00 0.00 0.00 70 1016.3
20260505175005 13 323 0.0 1.6 0.00 0.00 0.00 69 1016.2
20260505174529 13 326 0.0 3.2 0.00 0.00 0.00 70 1016.1
20260505174004 13 300 1.6 4.8 0.00 0.00 0.00 69 1016.1
20260505173504 14 247 0.0 4.8 0.00 0.00 0.00 68 1016.1
20260505173007 14 262 0.0 3.2 0.00 0.00 0.00 69 1016.0
20260505172504 14 302 0.0 3.2 0.00 0.00 0.00 68 1016.0
20260505172010 14 345 0.0 4.8 0.00 0.00 0.00 69 1016.0
20260505171511 14 139 0.0 4.8 0.00 0.00 0.00 70 1016.0
20260505171005 13 307 0.0 3.2 0.00 0.00 0.00 70 1016.0
20260505170504 13 307 0.0 3.2 0.00 0.00 0.00 70 1015.9
20260505170021 13 3 0.0 3.2 0.00 0.00 0.00 70 1016.0
20260505165507 13 149 0.0 3.2 0.00 0.00 0.00 71 1016.0
20260505165008 13 337 1.6 3.2 0.00 0.00 0.00 70 1016.0
20260505164522 13 143 0.0 1.6 0.00 0.00 0.00 71 1016.0
20260505164009 13 218 0.0 1.6 0.00 0.00 0.00 71 1016.0
20260505163510 13 292 0.0 1.6 0.00 0.00 0.00 72 1016.0
20260505163023 13 207 0.0 3.2 0.00 0.00 0.00 72 1016.1
20260505162506 13 206 0.0 3.2 0.00 0.00 0.00 72 1016.0
20260505162002 13 242 0.0 1.6 0.00 0.00 0.00 72 1015.9
20260505161509 13 238 0.0 1.6 0.00 0.00 0.00 72 1015.8
20260505161005 12 152 0.0 1.6 0.00 0.00 0.00 73 1015.8
20260505160504 12 288 0.0 1.6 0.00 0.00 0.00 73 1015.7
20260505153022 12 293 0.0 3.2 0.00 0.00 0.00 75 1015.7
20260505152508 12 293 0.0 3.2 0.00 0.00 0.00 75 1015.6
20260505152010 12 283 0.0 3.2 0.00 0.00 0.00 75 1015.6
20260505151522 12 307 0.0 3.2 0.00 0.00 0.00 75 1015.6
20260505151009 12 288 0.0 1.6 0.00 0.00 0.00 76 1015.6
20260505150504 12 288 0.0 1.6 0.00 0.00 0.00 76 1015.7
20260505140511 11 132 0.0 1.6 0.00 0.00 0.00 77 1015.1
20260505125010 11 345 0.0 0.0 0.00 0.00 0.00 76 1014.8
20260505124526 11 345 0.0 0.0 0.00 0.00 0.00 75 1014.7
20260505124007 11 345 0.0 0.0 0.00 0.00 0.00 75 1014.8
20260505123507 11 345 0.0 1.6 0.00 0.00 0.00 75 1014.9
20260505123015 11 345 0.0 1.6 0.00 0.00 0.00 75 1014.8
20260505122503 11 345 0.0 1.6 0.00 0.00 0.00 75 1014.8
20260505122010 11 345 0.0 1.6 0.00 0.00 0.00 75 1014.9
20260505121520 11 328 0.0 1.6 0.00 0.00 0.00 74 1015.0
20260505121008 11 328 0.0 1.6 0.00 0.00 0.00 74 1015.1
20260505120510 11 328 0.0 1.6 0.00 0.00 0.00 74 1015.0
20260505120022 11 328 0.0 3.2 0.00 0.00 0.00 74 1015.0
20260505115508 11 307 0.0 4.8 0.00 0.00 0.00 73 1014.9
20260505115009 11 305 1.6 4.8 0.00 0.00 0.00 73 1014.9
20260505114527 11 291 0.0 3.2 0.00 0.00 0.00 74 1014.9
20260505114011 11 291 0.0 3.2 0.00 0.00 0.00 73 1014.9
20260505113510 11 309 0.0 4.8 0.00 0.00 0.00 73 1014.9
20260505113026 11 309 0.0 4.8 0.00 0.00 0.00 73 1014.9
20260505112507 11 295 0.0 3.2 0.00 0.00 0.00 73 1014.8
20260505112008 11 296 0.0 3.2 0.00 0.00 0.00 73 1014.7
20260505111514 11 307 0.0 3.2 0.00 0.00 0.00 74 1014.8
20260505111004 11 289 0.0 3.2 0.00 0.00 0.00 74 1014.9
20260505110507 11 316 0.0 3.2 0.00 0.00 0.00 74 1014.9
20260505102011 11 293 1.6 4.8 0.00 0.00 0.00 76 1014.7
20260505101532 11 349 0.0 3.2 0.00 0.00 0.00 76 1014.8
20260505101011 12 316 1.6 6.4 0.00 0.00 0.00 76 1014.9
20260505100511 12 319 0.0 6.4 0.00 0.00 0.00 76 1014.9
20260505100020 12 339 1.6 6.4 0.00 0.00 0.00 75 1014.8
20260505095507 12 11 1.6 3.2 0.00 0.00 0.00 75 1014.9
20260505095004 12 309 1.6 4.8 0.00 0.00 0.00 75 1014.9
20260505094502 12 294 0.0 6.4 0.00 0.00 0.00 74 1015.0
20260505094003 12 288 0.0 6.4 0.00 0.00 0.00 74 1015.0
20260505093503 12 294 3.2 6.4 0.00 0.00 0.00 74 1015.1
20260505093006 12 292 1.6 6.4 0.00 0.00 0.00 74 1015.1
20260505092504 12 307 0.0 6.4 0.00 0.00 0.00 74 1015.0
20260505092004 12 314 1.6 4.8 0.00 0.00 0.00 74 1015.1
20260505091510 12 302 0.0 4.8 0.00 0.00 0.00 75 1015.1
20260505091007 12 238 0.0 8.0 0.00 0.00 0.00 75 1015.1
20260505090503 12 7 1.6 9.7 0.00 0.00 0.00 75 1015.1
20260505090014 12 313 3.2 9.7 0.00 0.00 0.00 75 1015.2
20260505085506 12 343 1.6 4.8 0.00 0.00 0.00 75 1015.2
20260505085011 12 278 0.0 6.4 0.00 0.00 0.00 75 1015.3
20260505084519 12 288 0.0 6.4 0.00 0.00 0.00 75 1015.3
20260505084007 12 355 1.6 6.4 0.00 0.00 0.00 75 1015.3
20260505083507 12 342 1.6 6.4 0.00 0.00 0.00 75 1015.3
20260505083024 12 322 1.6 4.8 0.00 0.00 0.00 75 1015.3
20260505082503 12 356 1.6 4.8 0.00 0.00 0.00 75 1015.3
20260505082003 12 333 0.0 3.2 0.00 0.00 0.00 75 1015.3
20260505081508 12 342 0.0 3.2 0.00 0.00 0.00 75 1015.3
20260505081007 12 323 0.0 4.8 0.00 0.00 0.00 74 1015.3
20260505080504 12 318 0.0 4.8 0.00 0.00 0.00 75 1015.2
20260505080011 12 286 0.0 4.8 0.00 0.00 0.00 74 1015.3
20260505075503 12 281 0.0 4.8 0.00 0.00 0.00 74 1015.4
20260505075003 12 304 1.6 4.8 0.00 0.00 0.00 74 1015.4
20260505074517 12 297 1.6 4.8 0.00 0.00 0.00 74 1015.5
20260505074008 12 43 1.6 4.8 0.00 0.00 0.00 75 1015.5
20260505073509 12 323 0.0 3.2 0.00 0.00 0.00 75 1015.5
20260505073020 12 340 0.0 6.4 0.00 0.00 0.00 75 1015.4
20260505072507 12 295 1.6 6.4 0.00 0.00 0.00 74 1015.3
20260505072007 12 283 0.0 1.6 0.00 0.00 0.00 75 1015.3
20260505071525 12 283 0.0 1.6 0.00 0.00 0.00 75 1015.4
20260505071003 12 283 0.0 1.6 0.00 0.00 0.00 74 1015.3
20260505070504 12 283 0.0 3.2 0.00 0.00 0.00 74 1015.3
20260505070006 12 283 0.0 3.2 0.00 0.00 0.00 75 1015.2
20260505065502 12 297 0.0 1.6 0.00 0.00 0.00 75 1015.2
20260505065005 12 297 0.0 3.2 0.00 0.00 0.00 75 1015.2
20260505064514 12 297 0.0 3.2 0.00 0.00 0.00 75 1015.2
20260505064005 12 357 0.0 1.6 0.00 0.00 0.00 75 1015.2
20260505063507 12 358 0.0 1.6 0.00 0.00 0.00 75 1015.3
20260505063018 12 6 1.6 1.6 0.00 0.00 0.00 74 1015.2
20260505062510 12 353 0.0 1.6 0.00 0.00 0.00 74 1015.2
20260505062010 12 354 1.6 1.6 0.00 0.00 0.00 74 1015.1
20260505061523 13 337 0.0 3.2 0.00 0.00 0.00 73 1015.0
20260505061011 13 353 1.6 3.2 0.00 0.00 0.00 73 1015.1
20260505060509 13 284 1.6 3.2 0.00 0.00 0.00 73 1015.2
20260505060031 13 336 0.0 1.6 0.00 0.00 0.00 73 1015.3
20260505055503 13 346 0.0 1.6 0.00 0.00 0.00 73 1015.3
20260505055003 13 346 0.0 1.6 0.00 0.00 0.00 73 1015.4
20260505054514 13 346 0.0 1.6 0.00 0.00 0.00 73 1015.4
20260505054006 13 346 1.6 1.6 0.00 0.00 0.00 72 1015.5
20260505053503 13 325 0.0 3.2 0.00 0.00 0.00 72 1015.5
20260505053017 13 325 0.0 3.2 0.00 0.00 0.00 72 1015.6
20260505052507 13 314 0.0 3.2 0.00 0.00 0.00 71 1015.5
20260505052004 13 312 0.0 3.2 0.00 0.00 0.00 71 1015.5
20260505051520 13 305 0.0 3.2 0.00 0.00 0.00 70 1015.5
20260505051007 13 329 0.0 3.2 0.00 0.00 0.00 70 1015.6
20260505050510 13 328 0.0 3.2 0.00 0.00 0.00 70 1015.5